Back to catalog

FENGYUN 1C DEB

AlivePO
NORAD 31977·DEBRIS·🇨🇳 China

Launched May 10, 1999 from Taiyuan Satellite Launch Center

Loading…

Next Passes (next 24 hours)

TLE

AgingSource: Space-Track

Epoch: Sep 3, 2026, 14:21 UTC

1 31977U 99025CPE 26246.59849274  .00001703  00000-0  11846-2 0  9993
2 31977  98.2108  21.2672 0271117 216.5113 141.7292 13.83710491658748

Track FENGYUN 1C DEB in real time with AllMySat

Download on the App Store